sat.trackr.live / text

‹ back to catalog

STARLINK-34098

NORAD 64080 · 2025-107S

PAYLOAD ACTIVE UNKNOWN

§ Identity

Operator
Country
US
Launch date
2025-05-21
Launch site
AFETR
Launch vehicle
Mass (kg)
RCS (m²)

Purposes: comms

External: N2YO · Heavens-Above · Gunter

§ Orbital elements

Epoch: 2026-05-25T00:02:46.580064Z

Period
94.27 min
Inclination
43.0000°
Eccentricity
0.0000938
Mean motion
15.27599553 rev/d
Perigee alt
482.3 km
Apogee alt
483.6 km
Semi-major
6,861.1 km
B*
6.8691e-4
RAAN
130.3821°
Arg perigee
249.4395°
Mean anomaly
110.6356°
Rev number
5,779

§ Raw data

STARLINK-340981 64080U 25107S   26145.00192801  .00018699  00000+0  68691-3 0  99972 64080  43.0000 130.3821 0000938 249.4395 110.6356 15.27599553 57792

JSON: /api/v1/satellites/64080 · /tle

For live sub-satellite position, see the globe view (requires WebGL).

§ Visibility from observer

Set your observer location to see the next 7 days of passes ≥ 10°. The values pass through the URL so the page stays shareable.

No JS? Fill the form by hand. The geolocation button needs JavaScript.